Estación meteorológica de Capdella (Pallars Jussà, Vall Fosca)

Consulta los datos en tiempo real de la estación meteorológica de Capdella





Hora UTC 05:35
Temperatura 3.2 ºC
Humedad 90.0 %
Presión 1015.1 hPa
Pluja 0.8 mm
Velocidad viento 0.0 km/h
Dirección viento NE

Datos diarios 2026-05-07



Hora UTC (invierno +1h; verano +2h)
Temperatura (ºC) Humedad (%) Presión (hPa) Velocidad viento (km/h) Precipitación (mm)
Hora UTC Aire Humedad Presión Vel. Dir. Vel. Max Dir. Intent. máx 5 min.
00:05 5.2 87.0 1015.4 0.0 NE 0.0 0.0
00:10 5.2 87.0 1015.3 0.0 NE 0.0 0.0
00:15 5.2 87.0 1015.3 0.0 NE 0.0 0.0
00:20 5.2 86.0 1015.2 0.0 NE 0.0 0.0
00:25 5.3 86.0 1015.2 0.0 NE 0.0 0.0
00:30 5.3 86.0 1015.3 0.0 NE 0.0 0.0
00:35 5.2 87.0 1015.4 0.0 NE 6.4 0.0
00:40 5.1 87.0 1015.4 1.6 NE 4.8 0.0
00:45 5.0 87.0 1015.3 0.0 NE 3.2 0.2
00:50 4.9 88.0 1015.4 0.0 NE 0.0 0.0
00:55 4.8 88.0 1015.3 0.0 NE 0.0 0.0
01:00 4.8 88.0 1015.0 0.0 NE 0.0 0.0
01:05 4.7 88.0 1015.1 0.0 NE 0.0 0.0
01:10 4.7 88.0 1015.1 0.0 NE 0.0 0.0
01:15 4.7 89.0 1015.2 0.0 NE 0.0 0.0
01:20 4.7 89.0 1015.1 0.0 NE 0.0 0.0
01:25 4.7 89.0 1015.1 0.0 NE 0.0 0.0
01:30 4.7 89.0 1015.1 0.0 NE 0.0 0.2
01:35 4.7 89.0 1015.0 0.0 NE 0.0 0.2
01:40 4.7 89.0 1015.0 0.0 NE 0.0 0.0
01:45 4.7 89.0 1014.9 0.0 NE 0.0 0.0
01:50 4.7 89.0 1014.9 0.0 NE 0.0 0.0
01:55 4.7 89.0 1014.9 0.0 NE 0.0 0.0
02:00 4.6 89.0 1014.9 0.0 NE 0.0 0.0
02:05 4.6 89.0 1014.9 0.0 NE 0.0 0.0
02:10 4.6 90.0 1014.9 0.0 NE 0.0 0.0
02:15 4.6 90.0 1014.9 0.0 NE 0.0 0.0
02:20 4.6 90.0 1015.0 0.0 NE 0.0 0.2
02:25 4.7 90.0 1015.0 0.0 NE 0.0 0.0
02:30 4.7 90.0 1015.1 0.0 NE 0.0 0.0
02:35 4.8 90.0 1015.1 0.0 NE 0.0 0.0
02:40 4.7 90.0 1015.1 0.0 NE 0.0 0.0
02:45 4.7 90.0 1015.1 0.0 NE 0.0 0.0
02:50 4.7 90.0 1015.0 0.0 NE 0.0 0.0
02:55 4.7 90.0 1015.0 0.0 NE 0.0 0.0
03:00 4.7 90.0 1015.0 0.0 NE 0.0 0.0
03:05 4.6 90.0 1015.1 0.0 NE 0.0 0.0
03:10 4.6 90.0 1015.0 0.0 NE 0.0 0.0
03:15 4.6 90.0 1015.1 0.0 NE 0.0 0.0
03:20 4.5 90.0 1015.0 0.0 NE 0.0 0.0
03:25 4.4 90.0 1015.1 0.0 NE 0.0 0.0
03:30 4.4 90.0 1015.0 0.0 NE 0.0 0.0
03:35 4.4 90.0 1014.9 0.0 NE 0.0 0.0
03:40 4.3 90.0 1014.9 0.0 NE 0.0 0.0
03:45 4.2 90.0 1014.8 0.0 NE 0.0 0.0
03:50 4.2 90.0 1014.9 0.0 NE 0.0 0.0
03:55 4.1 90.0 1014.9 1.6 NE 3.2 0.0
04:00 4.1 90.0 1014.9 0.0 NE 4.8 0.0
04:05 4.0 90.0 1014.9 0.0 NE 3.2 0.0
04:10 3.9 90.0 1014.6 0.0 NE 0.0 0.0
04:15 3.8 90.0 1014.7 0.0 NE 0.0 0.0
04:20 3.7 90.0 1014.6 0.0 NE 0.0 0.0
04:25 3.6 90.0 1014.6 0.0 NE 0.0 0.0
04:30 3.6 90.0 1014.6 0.0 NE 0.0 0.0
04:35 3.5 90.0 1014.7 0.0 NE 0.0 0.0
04:40 3.5 90.0 1014.7 0.0 NE 0.0 0.0
04:45 3.4 90.0 1014.7 0.0 NE 0.0 0.0
04:50 3.3 90.0 1014.7 0.0 NE 0.0 0.0
04:55 3.3 90.0 1014.7 0.0 NE 0.0 0.0
05:00 3.2 90.0 1014.8 0.0 NE 0.0 0.0
05:05 3.2 90.0 1014.9 0.0 NE 0.0 0.0
05:10 3.2 90.0 1014.9 0.0 NE 0.0 0.0
05:15 3.2 90.0 1015.0 0.0 NE 0.0 0.0
05:20 3.2 90.0 1015.0 0.0 NE 0.0 0.0
05:25 3.2 90.0 1015.0 0.0 NE 0.0 0.0
05:30 3.2 90.0 1015.1 0.0 NE 0.0 0.0
05:35 3.2 90.0 1015.1 0.0 NE 0.0 0.0
Máxima 5.3 90.0 1015.4 1.6 NE 6.4 0.2
Mínima 3.2 86.0 1014.6
Total 0.8